Westerly, RI

10:49 PM EDT on May 25, 2018 (GMT -0400)
Westerly State

Weather History for KWST - November, 2013

Change the Weather History Date:

Sunday, November 17, 2013

  Actual Average (KGON) Record (KGON)
Temperature  
Mean Temperature 46 °F -  
Max Temperature 59 °F 51 °F 65 °F (1981)
Min Temperature 34 °F 32 °F 16 °F (1967)
Degree Days  
Heating Degree Days 18    
Moisture  
Dew Point 52 °F    
Average Humidity 95    
Maximum Humidity 100    
Minimum Humidity 81    
Precipitation  
Precipitation 0.11 in - - ()
Sea Level Pressure  
Sea Level Pressure 30.14 in    
Wind  
Wind Speed 5 mph (ESE)    
Max Wind Speed 12 mph    
Max Gust Speed -    
Visibility 4 miles    
Events Fog , Rain    
Averages and records for this station are not official NWS values.
T = Trace of Precipitation, MM = Missing Value Source: NWS Daily Summary

Daily Weather History Graph

Daily Weather History Graph

Search for Another Location

Airport or City:

Astronomy

Nov. 17, 2013 Rise Set
Actual Time 6:38 AM EST 4:25 PM EST
Civil Twilight 6:08 AM EST 4:55 PM EST
Nautical Twilight 5:34 AM EST 5:29 PM EST
Astronomical Twilight 5:01 AM EST 6:02 PM EST
Moon 4:40 PM EST (11/17) 6:29 AM EST (11/17)
Length of Visible Light 10h 47m
Length of Day
9h 47m
Full, 100% of the Moon is Illuminated
Nov 17
Full
Nov 25
Last Quarter
Dec 2
New
Dec 9
First Quarter
Dec 17
Full

Hourly Weather History & Observations

Time (EST) Temp. Windchill Dew Point Humidity Pressure Visibility Wind Dir Wind Speed Gust Speed Precip Events Conditions
12:53 AM 36.0 °F - 34.0 °F 93% 30.31 in 5.0 mi Calm Calm - N/A   Clear
1:53 AM 34.0 °F - 33.1 °F 96% 30.30 in 6.0 mi Calm Calm - N/A   Clear
2:53 AM 36.0 °F 33.3 °F 34.0 °F 93% 30.30 in 5.0 mi NNE 3.5 mph - N/A   Clear
3:53 AM 36.0 °F 33.3 °F 36.0 °F 100% 30.30 in 4.0 mi North 3.5 mph - N/A   Mostly Cloudy
4:53 AM 39.9 °F 37.8 °F 39.0 °F 97% 30.30 in 6.0 mi NNE 3.5 mph - N/A   Overcast
5:11 AM 41.0 °F 39.0 °F 39.0 °F 93% 30.30 in 6.0 mi North 3.5 mph - N/A   Overcast
5:53 AM 42.1 °F 40.2 °F 41.0 °F 96% 30.28 in 6.0 mi NE 3.5 mph - N/A   Overcast
6:05 AM 42.1 °F - 41.0 °F 96% 30.29 in 5.0 mi Calm Calm - N/A   Overcast
6:20 AM 43.0 °F 41.3 °F 42.1 °F 97% 30.29 in 5.0 mi North 3.5 mph - N/A   Overcast
6:53 AM 43.0 °F 40.3 °F 42.1 °F 97% 30.28 in 3.0 mi NNE 4.6 mph - N/A   Overcast
7:53 AM 46.9 °F - 46.0 °F 97% 30.27 in 6.0 mi North 3.5 mph - N/A   Overcast
8:53 AM 50.0 °F - 48.0 °F 93% 30.27 in 8.0 mi ENE 3.5 mph - N/A   Overcast
9:42 AM 55.9 °F - 51.1 °F 84% 30.27 in 10.0 mi ESE 5.8 mph - N/A   Overcast
9:51 AM 57.2 °F - 51.8 °F 82% 30.27 in 10.0 mi ESE 10.4 mph - N/A   Overcast
9:53 AM 57.0 °F - 51.1 °F 81% 30.27 in 10.0 mi ESE 10.4 mph - N/A   Overcast
10:53 AM 57.9 °F - 52.0 °F 81% 30.23 in 10.0 mi ESE 9.2 mph - N/A   Overcast
11:32 AM 59.0 °F - 53.1 °F 81% 30.21 in 10.0 mi ESE 10.4 mph - N/A   Overcast
11:53 AM 59.0 °F - 53.1 °F 81% 30.21 in 10.0 mi East 9.2 mph - N/A   Overcast
12:49 PM 57.2 °F - 53.6 °F 88% 30.18 in 10.0 mi East 9.2 mph - N/A   Overcast
12:53 PM 57.0 °F - 54.0 °F 89% 30.18 in 10.0 mi East 5.8 mph - N/A   Overcast
1:10 PM 57.0 °F - 54.0 °F 89% 30.17 in 2.5 mi East 5.8 mph - 0.00 in Rain Light Rain
1:53 PM 55.9 °F - 55.0 °F 97% 30.15 in 2.0 mi East 5.8 mph - 0.03 in Rain Light Rain
2:07 PM 57.0 °F - 55.9 °F 96% 30.14 in 1.2 mi East 5.8 mph - 0.04 in Rain Light Rain
2:12 PM 57.0 °F - 55.9 °F 96% 30.14 in 2.5 mi East 6.9 mph - 0.05 in Rain Light Rain
2:22 PM 57.0 °F - 55.9 °F 96% 30.13 in 1.2 mi East 6.9 mph - 0.07 in Rain Light Rain
2:29 PM 57.0 °F - 55.9 °F 96% 30.13 in 3.0 mi East 5.8 mph - 0.07 in Rain Light Rain
2:53 PM 57.0 °F - 55.9 °F 96% 30.13 in 2.5 mi ESE 5.8 mph - 0.07 in Rain Light Rain
3:01 PM 57.0 °F - 55.9 °F 96% 30.12 in 5.0 mi SE 5.8 mph - 0.00 in   Overcast
3:21 PM 57.0 °F - 55.9 °F 96% 30.12 in 4.0 mi East 6.9 mph - 0.00 in   Overcast
3:42 PM 57.0 °F - 57.0 °F 100% 30.11 in 1.8 mi ESE 6.9 mph - 0.01 in Rain Light Rain
3:53 PM 57.0 °F - 55.9 °F 96% 30.11 in 3.0 mi ESE 5.8 mph - 0.01 in Rain Light Rain
4:53 PM 57.9 °F - 57.0 °F 97% 30.09 in 3.0 mi SE 5.8 mph - 0.00 in   Overcast
5:14 PM 57.9 °F - 57.0 °F 97% 30.07 in 2.5 mi SE 6.9 mph - N/A   Overcast
5:53 PM 57.9 °F - 57.0 °F 97% 30.06 in 2.5 mi SE 4.6 mph - N/A   Overcast
6:03 PM 57.0 °F - 57.0 °F 100% 30.05 in 3.0 mi SE 5.8 mph - N/A   Overcast
6:34 PM 57.9 °F - 57.0 °F 97% 30.03 in 2.0 mi SE 9.2 mph - N/A   Overcast
6:41 PM 57.9 °F - 57.0 °F 97% 30.03 in 1.8 mi SE 6.9 mph - N/A   Overcast
6:53 PM 57.9 °F - 57.9 °F 100% 30.03 in 3.0 mi SSE 10.4 mph - N/A   Overcast
7:41 PM 57.9 °F - 57.9 °F 100% 30.01 in 2.0 mi SE 11.5 mph - N/A   Overcast
7:48 PM 57.2 °F - 57.2 °F 100% 30.01 in 1.2 mi SSE 9.2 mph - N/A   Overcast
7:53 PM 57.9 °F - 57.9 °F 100% 30.01 in 1.0 mi SSE 9.2 mph - N/A   Overcast
8:00 PM 57.9 °F - 57.9 °F 100% 30.01 in 0.8 mi SSE 8.1 mph - N/A   Mist
8:53 PM 57.9 °F - 57.9 °F 100% 29.98 in 0.5 mi SSE 6.9 mph - N/A Fog Fog
9:20 PM 57.9 °F - 57.9 °F 100% 29.97 in 1.2 mi SSE 9.2 mph - N/A   Overcast
9:53 PM 57.9 °F - 57.9 °F 100% 29.95 in 0.8 mi SSE 9.2 mph - 0.00 in Rain Light Rain
10:35 PM 57.9 °F - 57.9 °F 100% 29.92 in 0.2 mi SSE 8.1 mph - 0.00 in Fog Fog
10:53 PM 57.9 °F - 57.9 °F 100% 29.91 in 0.2 mi SSE 10.4 mph - 0.00 in Fog Fog
11:53 PM 57.9 °F - 57.9 °F 100% 29.86 in 0.2 mi SSE 9.2 mph - N/A Fog Fog